User: anonymous   Login
Location: Eaton Estates
(41.3089°N, 82.0057°W)
Time: 04:45:17
(UTC+00:00)
Language:

ITUPSAT 1 - Orbit

View from above orbital plane
View from above orbital plane
View from above satellite
View from above satellite

Ground track
Ground track

The orbit data is extracted from the following two-line orbital elements,

1 35935U 09051E   23087.54715017  .00001536  00000-0  35623-3 0  9997
2 35935  98.5364 317.3330 0006819 273.3492  86.6925 14.56504433717259
Epoch (UTC): 28 March 2023 13:07:53
Eccentricity: 0.0006819
inclination: 98.5364°
perigee height: 699 km
apogee height: 709 km
right ascension of ascending node: 317.3330°
argument of perigee: 273.3492°
revolutions per day: 14.56504433
mean anomaly at epoch: 86.6925°
orbit number at epoch: 71725

The dashed part of the orbit path shows where the satellite is in the earth's shadow,  

DLR